This is the latest recevied weather packets stored in our database for station/object N9DMT-13. If no packets are shown the sender has not sent any weather packets the latest 1 day(s).
| Time | Temp. | Humidity | Pressure | Rain* | Wind** | Luminosity | Snow |
|---|---|---|---|---|---|---|---|
| 1778029142 | 8.89° C | 43% | 978 hPa | 0 mm | 0 m/s | - | - |
| 1778028841 | 9.44° C | 44% | 977.9 hPa | 0 mm | 0 m/s | - | - |
| 1778028540 | 9.44° C | 44% | 978 hPa | 0 mm | 0 m/s | - | - |
| 1778028239 | 9.44° C | 43% | 978.1 hPa | 0 mm | 0 m/s | - | - |
| 1778027938 | 10° C | 41% | 977.9 hPa | 0 mm | 0 m/s | - | - |
| 1778027637 | 10° C | 40% | 977.9 hPa | 0 mm | 0 m/s | - | - |
| 1778027336 | 10° C | 43% | 977.8 hPa | 0 mm | 0 m/s | - | - |
| 1778027036 | 10° C | 41% | 977.8 hPa | 0 mm | 0 m/s | - | - |
| 1778026735 | 10° C | 40% | 977.9 hPa | 0 mm | 0 m/s | - | - |
| 1778026434 | 10° C | 41% | 978 hPa | 0 mm | 0 m/s | - | - |
| 1778026134 | 10° C | 42% | 978.1 hPa | 0 mm | 0 m/s | - | - |
| 1778025832 | 10° C | 41% | 977.9 hPa | 0 mm | 0 m/s | - | - |
| 1778025531 | 10° C | 41% | 978 hPa | 0 mm | 0 m/s | - | - |
| 1778025231 | 10.56° C | 41% | 977.8 hPa | 0 mm | 0 m/s | - | - |
| 1778024929 | 10.56° C | 40% | 977.9 hPa | 0 mm | 0 m/s | - | - |
| 1778024629 | 10.56° C | 39% | 977.9 hPa | 0 mm | 0.45 m/s, 240° | - | - |
| 1778024328 | 10.56° C | 37% | 977.6 hPa | 0 mm | 0 m/s | - | - |
| 1778024027 | 11.11° C | 37% | 977.8 hPa | 0 mm | 0.45 m/s, 302° | - | - |
| 1778023726 | 11.11° C | 37% | 977.8 hPa | 0 mm | 0.45 m/s, 67° | - | - |
| 1778023426 | 11.11° C | 37% | 977.8 hPa | 0 mm | 0.45 m/s, 128° | - | - |
| 1778023125 | 11.11° C | 38% | 977.9 hPa | 0 mm | 0.45 m/s, 261° | - | - |
| 1778022824 | 11.67° C | 37% | 977.9 hPa | 0 mm | 0.89 m/s, 2° | - | - |
| 1778022523 | 11.11° C | 39% | 977.8 hPa | 0 mm | 0 m/s | - | - |
| 1778022222 | 11.11° C | 36% | 977.9 hPa | 0 mm | 0.45 m/s, 11° | - | - |
| 1778021922 | 11.67° C | 37% | 978.2 hPa | 0 mm | 0 m/s | - | - |
* Rain latest hour (hover to see other rain measurements)
** Current wind speed in m/s (hover to see current wind gust speed)